Weather History for KGCC - March, 2013

Change the Weather History Date:

Thursday, March 14, 2013

  Actual Average Record
Temperature  
Mean Temperature 51 °F 34 °F  
Max Temperature 68 °F 47 °F - ()
Min Temperature 34 °F 22 °F - ()
Degree Days  
Heating Degree Days 14 31  
Month to date heating degree days 411 454  
Since 1 July heating degree days 5534 5862  
Cooling Degree Days 0 0  
Month to date cooling degree days 0 0  
Year to date cooling degree days 0 0  
Moisture  
Dew Point 27 °F    
Average Humidity 45    
Maximum Humidity 70    
Minimum Humidity 20    
Precipitation  
Precipitation 0.00 in 0.02 in - ()
Month to date precipitation 0.02 0.35  
Year to date precipitation 1.15 1.13  
Sea Level Pressure  
Sea Level Pressure 30.07 in    
Wind  
Wind Speed 7 mph (SW)    
Max Wind Speed 20 mph    
Max Gust Speed 23 mph    
Visibility 10 miles    
Events      
T = Trace of Precipitation, MM = Missing Value Source: NWS Daily Summary

Daily Weather History Graph

Daily Weather History Graph

Search for Another Location

Airport or City:

Trip Planner

Search our weather history database for the weather conditions in past years. The results will help you decide how hot, cold, wet, or windy it might be!

Date:

Astronomy

Mar. 14, 2013 Rise Set
Actual Time 7:15 AM MDT 7:07 PM MDT
Civil Twilight 6:46 AM MDT 7:36 PM MDT
Nautical Twilight 6:13 AM MDT 8:10 PM MDT
Astronomical Twilight 5:38 AM MDT 8:44 PM MDT
Moon 8:23 AM MDT (3/14) 10:35 PM MDT (3/14)
Length of Visible Light 12h 49m
Length of Day
11h 51m
Waxing Crescent, 9% of the Moon is Illuminated
Mar 14
Waxing Crescent
Mar 19
First Quarter
Mar 27
Full
Apr 2
Last Quarter
Apr 10
New

Hourly Weather History & Observations

Time (MDT) Temp. Windchill Dew Point Humidity Pressure Visibility Wind Dir Wind Speed Gust Speed Precip Events Conditions
12:53 AM 45.0 °F 40.1 °F 28.0 °F 52% 30.09 in 10.0 mi West 9.2 mph - N/A   Clear
1:53 AM 46.0 °F 41.4 °F 27.0 °F 47% 30.09 in 10.0 mi West 9.2 mph - N/A   Clear
2:53 AM 45.0 °F 40.6 °F 27.0 °F 49% 30.09 in 10.0 mi West 8.1 mph - N/A   Clear
3:53 AM 44.1 °F 39.0 °F 28.0 °F 53% 30.09 in 10.0 mi West 9.2 mph - N/A   Clear
4:53 AM 43.0 °F - 26.1 °F 51% 30.09 in 10.0 mi Calm Calm - N/A   Clear
5:53 AM 37.9 °F 35.5 °F 26.1 °F 62% 30.13 in 10.0 mi SSW 3.5 mph - N/A   Clear
6:53 AM 39.0 °F 35.7 °F 25.0 °F 57% 30.16 in 10.0 mi South 4.6 mph - N/A   Clear
7:53 AM 35.1 °F 31.0 °F 26.1 °F 70% 30.19 in 10.0 mi SSE 4.6 mph - N/A   Clear
8:53 AM 53.1 °F - 28.0 °F 38% 30.17 in 10.0 mi SSW 10.4 mph - N/A   Clear
9:53 AM 57.0 °F - 27.0 °F 32% 30.13 in 10.0 mi SSW 11.5 mph - N/A   Clear
10:53 AM 61.0 °F - 28.0 °F 29% 30.11 in 10.0 mi South 6.9 mph - N/A   Clear
11:53 AM 63.0 °F - 27.0 °F 26% 30.10 in 10.0 mi SSE 8.1 mph - N/A   Clear
12:53 PM 64.0 °F - 25.0 °F 23% 30.07 in 10.0 mi SSW 9.2 mph - N/A   Clear
1:53 PM 64.9 °F - 24.1 °F 21% 30.03 in 10.0 mi SW 6.9 mph - N/A   Clear
2:53 PM 66.9 °F - 24.1 °F 20% 30.01 in 10.0 mi Variable 5.8 mph 21.9 mph N/A   Clear
3:53 PM 66.9 °F - 24.1 °F 20% 30.00 in 10.0 mi West 12.7 mph 17.3 mph N/A   Clear
4:53 PM 66.9 °F - 25.0 °F 21% 30.01 in 10.0 mi WNW 16.1 mph - N/A   Clear
5:53 PM 63.0 °F - 26.1 °F 25% 30.03 in 10.0 mi NW 12.7 mph - N/A   Clear
6:53 PM 57.0 °F - 27.0 °F 32% 30.04 in - NW 8.1 mph - N/A   Clear
7:53 PM 46.9 °F - 27.0 °F 46% 30.07 in - Calm Calm - N/A   Clear
8:53 PM 45.0 °F 43.5 °F 28.0 °F 52% 30.02 in - SSW 3.5 mph - N/A   Clear
9:53 PM 50.0 °F - 27.0 °F 41% 29.98 in - Calm Calm - N/A   Clear
10:53 PM 39.0 °F - 26.1 °F 60% 29.98 in - Calm Calm - N/A   Clear
11:53 PM 43.0 °F 39.5 °F 30.0 °F 60% 29.94 in - South 5.8 mph - N/A   Clear